Regional Weather Roundup
Issued by NWS

Home | Current Version | Previous Version | Graphics & Text | Print | Product List | Glossary On
Versions: 1 2 3 4 5 6 7 8 9 10 11 12 13 14 15 16 17 18 19 20 21 22 23 24 25 26 27 28 29 30 31 32 33 34 35 36 37 38 39 40 41 42 43 44 45 46 47 48 49 50
000
ASUS45 KABQ 290201
RWRNM
NEW MEXICO REGIONAL WEATHER ROUNDUP
NATIONAL WEATHER SERVICE ALBUQUERQUE NM
800 PM MDT FRI AUG 28 2015

NOTE: "FAIR" MEANS FEW OR NO CLOUDS BELOW 12,000 FEET AGL WITH NO
       SIGNIFICANT WEATHER OR OBSTRUCTIONS TO VISION.

      THIS PRODUCT IS RELEASED AS TWO VERSIONS.  ONE VERSION NEAR
      THE TOP OF THE HOUR CONTAINING PRELIMINARY DATA FROM ALBUQUERQUE
      AND OTHER STATIONS.  A FINAL VERSION WITH ADDITIONAL DATA IS
      ISSUED ABOUT 10 MINUTES AFTER THE HOUR.

NMZ501-503-504-510>518-290300-
NORTHWEST PLATEAU/NORTHCENTRAL MOUNTAINS

CITY           SKY/WX    TMP DP  RH WIND       PRES   REMARKS
FARMINGTON     CLEAR     80  34  19 W7        30.11R
LOS ALAMOS     MOCLDY    70  43  36 SW8       30.31S
SANTA FE       PTCLDY    73  40  30 SE6       30.24R
TAOS           MOCLDY    70  39  32 E18G25    30.33R

$$
NMZ402-403-502-505>509-290300-
WESTCENTRAL MOUNTAINS/SOUTHWEST MOUNTAINS

CITY           SKY/WX    TMP DP  RH WIND       PRES   REMARKS
GALLUP         PTCLDY    73  44  35 CALM      30.23R
GRANTS         PTCLDY    68  47  47 CALM      30.26R
SILVER CITY      N/A     77  54  44 NW3       30.16R

$$
NMZ407-409-411-412-290300-
SOUTHERN DESERTS

CITY           SKY/WX    TMP DP  RH WIND       PRES   REMARKS
DEMING         MOCLDY    85  52  32 CALM      30.05R
HOLLOMAN AFB   DRIZZLE   79  57  45 E14       30.05S
ALAMOGORDO     CLOUDY    81  50  34 N9        30.10R
T OR C         MOCLDY    84  49  29 SW6       30.08R

$$
NMZ519>523-290300-
CENTRAL VALLEYS/CENTRAL HIGHLANDS

CITY           SKY/WX    TMP DP  RH WIND       PRES   REMARKS
ALBUQUERQUE    MOCLDY    76  48  37 E18G26    30.15R
DOUBLE EAGLE   MOCLDY    75  52  43 SE14      30.19R
MORIARTY ARPT  FAIR      67  49  53 SW3       30.26R
CLINES CORNERS MOCLDY    64  49  57 E7        30.31R
BELEN          FAIR      79  47  32 E10       30.13S
SOCORRO        NOT AVBL

$$
NMZ524>526-539-540-290300-
SOUTHCENTRAL MOUNTAINS

CITY           SKY/WX    TMP DP  RH WIND       PRES   REMARKS
RUIDOSO        CLOUDY    64  48  55 MISG      30.33R

$$
NMZ527>531-290300-
NORTHEAST HIGHLANDS/NORTHEAST PLAINS

CITY           SKY/WX    TMP DP  RH WIND       PRES   REMARKS
LAS VEGAS      PTCLDY    61  49  64 NE7       30.33R
RATON          MOCLDY    70  51  51 S9        30.28R
CLAYTON        CLOUDY    70  61  73 W7        30.18R

$$
NMZ532>537-290300-
EASTCENTRAL PLAINS

CITY           SKY/WX    TMP DP  RH WIND       PRES   REMARKS
TUCUMCARI      CLOUDY    80  55  42 NE10      30.10R
CANNON AFB     CLOUDY    82  58  45 E6        30.10R
CLOVIS AIRPORT CLOUDY    81  57  44 E10       30.11R

$$
NMZ028-029-538-290300-
SOUTHEAST PLAINS

CITY           SKY/WX    TMP DP  RH WIND       PRES   REMARKS
ROSWELL        CLOUDY    82  53  36 W10       30.01R
ARTESIA        MOCLDY    84  54  34 W14       30.03R
CARLSBAD       CLOUDY    81  59  47 SE6       30.02R
HOBBS          CLOUDY    73  59  60 S13       30.06R


$$



USA.gov is the U.S. government's official web portal to all federal, state and local government web resources and services.